Location: Unspecified
(0.0000°N, 0.0000°E)
Time: 23:46:54
(UTC+00:00)

Tiros 1 despin weight - Pass Details

Date: 21 December 2018
Orbit: 594 x 643 km, 48.2° (Epoch: 18 January)

Event Time Altitude Azimuth Distance (km) Brightness Sun altitude
Rises 18:38:34 0° 225° (SW) 2,834 ? -9.2°
Reaches altitude 10° 18:40:53 10° 228° (SW) 1,926 ? -9.8°
Maximum altitude 18:45:14 62° 309° (NW) 665 ? -10.8°
Enters shadow 18:49:27 11° 30° (NNE) 1,868 ? -11.7°
